SCP
0 0 0 0 0 0 0 0 1 1 1 1 1 1 1 0 0 0 0 0 0 0 0 0 0 0 1 1 1 1 1 1 1 1 1 0 0 0 0 0 0 0 0 0 0 0 0 0 0
0 0 0 0 0 0 0 1 1 1 1 1 1 1 1 0 0 0 0 0 0 0 0 0 0 0 1 1 1 1 1 0 0 1 1 0 0 0 0 0 0 0 0 0 0 0 0 0 0
0 0 0 0 0 0 0 1 1 1 1 1 1 1 1 0 0 0 0 0 0 0 0 0 0 0 1 1 1 0 0 0 0 1 1 0 0 0 0 0 0 0 0 0 0 0 0 0 0
0 0 0 0 0 0 1 1 1 2 2 2 2 1 1 0 0 0 0 0 0 0 0 0 1 1 1 1 1 0 0 1 1 1 1 1 0 0 0 0 0 0 0 0 0 0 0 0 0
0 0 0 0 0 0 1 1 1 2 2 2 1 1 1 1 0 0 0 0 0 1 1 1 1 1 1 1 1 1 0 1 1 1 1 1 1 1 0 0 0 0 0 0 0 0 0 0 0
0 0 0 0 0 0 1 1 1 2 2 2 1 1 1 0 1 1 1 1 1 1 1 1 1 1 1 1 1 1 0 0 1 1 1 1 1 1 1 1 0 0 0 0 0 0 0 0 0
0 0 0 0 0 0 1 1 2 2 2 2 1 1 1 0 1 1 1 1 1 1 1 1 1 1 1 1 1 1 1 0 0 1 1 1 1 1 1 1 1 0 0 0 0 0 0 0 0
0 0 0 0 0 1 1 1 1 2 2 1 1 1 1 1 1 1 1 1 1 1 1 1 1 1 1 1 1 1 1 1 0 0 0 1 1 1 1 1 1 1 0 0 0 0 0 0 0
0 0 0 0 0 0 1 1 1 2 1 1 1 1 1 1 1 1 1 1 1 1 1 1 1 1 1 1 1 1 1 1 1 0 0 1 1 1 1 1 1 1 0 0 0 0 0 0 0
0 0 0 0 0 0 1 1 1 1 1 1 1 1 2 2 2 1 1 1 1 1 1 1 1 1 1 1 1 1 1 1 1 1 0 1 1 1 1 1 1 1 0 0 0 0 0 0 0
0 0 0 0 0 0 1 1 1 1 1 1 2 2 2 3 2 1 1 1 1 1 1 1 1 1 1 1 1 1 1 1 1 1 0 0 1 1 1 1 1 1 1 0 0 0 0 0 0
0 0 0 0 0 0 1 1 1 1 1 1 2 2 2 2 2 1 1 1 1 1 1 1 1 1 1 1 1 1 1 0 0 0 0 0 1 1 1 1 1 1 1 1 0 0 0 0 0
0 0 0 0 0 0 1 1 1 1 1 2 2 2 2 2 1 1 1 1 1 1 1 1 1 1 1 1 1 1 1 0 0 0 0 0 0 1 1 1 1 1 1 1 1 0 0 0 0
0 0 0 0 0 1 1 2 2 2 2 2 2 2 2 2 1 1 1 1 1 1 1 1 1 1 1 1 1 1 1 1 0 0 0 0 0 1 1 1 1 1 1 1 1 0 0 0 0
0 0 0 0 0 1 1 2 2 2 2 2 2 2 2 2 1 1 2 2 1 1 1 2 2 1 1 1 1 1 1 1 1 1 0 0 0 1 1 1 1 1 1 1 1 0 0 0 0
0 0 0 0 0 0 1 1 2 2 2 2 2 2 2 2 2 2 2 2 2 2 2 2 2 1 1 1 1 1 0 0 1 1 1 0 0 1 1 1 1 1 1 1 0 0 0 0 0
0 0 0 0 0 0 1 1 1 2 2 2 2 2 2 1 1 1 2 2 3 3 2 2 2 1 1 1 1 1 0 0 0 1 0 0 0 1 1 1 1 1 1 0 0 0 0 0 0
0 0 0 0 0 0 1 1 2 2 2 2 1 2 2 1 1 2 2 3 3 3 3 3 2 1 1 1 1 1 0 0 0 0 0 0 0 0 1 1 1 1 0 0 0 0 0 0 0
0 0 0 0 0 0 1 1 1 2 2 2 1 1 2 2 2 2 3 3 4 4 4 3 2 1 1 1 1 1 1 0 0 0 0 0 0 1 1 1 1 1 0 0 0 0 0 0 0
0 0 0 0 0 0 1 1 1 2 2 2 1 1 2 2 2 2 3 4 5 5 4 3 2 1 1 1 1 1 1 0 0 0 0 0 0 1 1 1 1 1 1 0 0 0 0 0 0
0 0 0 0 0 0 1 1 1 1 2 2 2 2 2 2 3 3 3 4 4 4 4 3 2 1 1 1 1 1 1 1 1 1 1 0 1 1 1 1 1 1 1 1 1 0 0 0 0
0 0 0 0 0 0 0 0 1 1 2 2 2 2 2 2 3 3 3 3 3 3 3 2 2 1 1 1 1 1 1 1 1 1 1 1 1 1 1 1 1 1 1 1 1 1 0 0 0
0 0 0 0 0 0 0 0 1 1 1 2 2 3 3 2 2 2 2 2 2 3 3 2 2 1 1 1 1 1 1 1 1 1 1 1 1 1 1 1 1 1 1 1 1 1 1 0 0
0 0 0 0 0 0 0 0 0 1 1 1 1 2 2 2 2 2 2 2 3 3 3 2 2 1 1 1 1 1 1 1 1 1 1 1 1 1 1 1 1 1 1 1 1 1 1 0 0
0 0 0 0 0 0 0 0 0 0 1 1 1 1 2 2 2 2 2 2 3 3 3 2 2 1 1 1 1 1 1 1 1 1 1 1 1 1 1 1 1 1 1 1 1 1 1 0 0
0 0 0 0 0 0 0 0 0 0 1 1 1 1 2 2 2 3 3 2 3 4 3 2 1 1 1 1 1 1 1 1 1 1 1 1 1 1 1 1 1 1 1 1 1 1 1 0 0
0 0 0 0 0 0 0 0 0 1 1 1 1 1 2 3 3 3 3 2 2 3 3 2 2 1 1 1 1 1 1 1 1 1 1 1 1 1 1 1 1 1 1 1 1 1 1 1 0
0 0 0 0 0 0 1 1 0 1 1 1 1 2 3 4 4 4 3 2 2 2 2 2 2 2 1 1 1 1 1 1 1 1 1 1 1 1 1 1 1 1 1 1 1 1 1 1 1
0 0 0 0 0 0 0 0 0 1 1 1 1 2 3 4 4 3 2 2 2 2 2 2 2 2 1 1 1 1 1 1 1 1 1 1 1 1 1 1 1 1 1 1 1 1 1 1 1
0 0 0 0 0 0 0 0 0 1 1 1 1 2 3 3 3 2 2 2 2 2 3 3 2 2 1 1 1 1 1 1 1 1 1 1 1 1 1 1 1 1 1 1 1 1 1 1 1
Wind_Speed
2 1 1 1 5 6 3 3 1 2 3 2 5 5 6 4 2 3 3 8 11 10 8 11 14 14 14 14 14 14 15 15 15 15 14 15 14 14 14 14 14 15 15 16 16 16 16 16 15
1 2 1 4 6 4 3 3 2 2 3 5 6 6 6 5 5 7 5 8 12 10 7 9 14 14 14 14 13 14 14 14 14 14 14 14 14 14 14 14 14 15 15 15 15 15 15 15 14
1 1 3 5 4 2 2 2 1 2 3 3 5 5 5 4 6 5 6 11 10 8 7 10 15 14 14 13 13 13 13 13 13 13 13 13 13 13 14 14 14 14 14 15 15 15 14 14 13
1 4 5 6 3 1 2 2 2 2 4 5 5 6 5 4 4 6 12 12 10 8 6 9 15 14 13 13 13 12 12 12 12 12 12 13 13 13 13 13 13 14 14 14 14 14 13 13 12
3 5 6 4 2 1 1 1 2 3 3 4 4 5 4 4 9 13 12 11 10 7 6 8 14 14 13 13 12 12 12 12 12 11 12 12 12 12 12 12 13 13 13 13 13 13 12 11 11
5 5 5 1 2 2 1 1 2 3 3 3 5 5 3 4 10 12 11 9 8 7 6 7 13 13 13 12 12 11 11 11 11 11 11 11 11 11 11 12 12 12 12 12 12 11 11 10 10
5 5 3 1 1 2 0 1 2 3 3 2 4 6 3 5 7 10 9 8 7 6 5 5 6 8 12 12 11 11 11 11 10 10 10 10 10 10 11 11 11 11 11 11 10 10 10 9 9
4 5 3 0 1 1 1 2 2 3 2 3 4 7 6 7 9 10 9 7 6 5 5 4 4 4 4 6 10 11 10 10 10 10 10 10 10 9 10 9 9 10 10 10 9 9 9 9 9
4 6 1 3 4 3 3 3 2 2 4 2 3 4 8 15 13 12 10 7 6 6 4 4 4 4 4 4 7 8 9 9 8 7 9 7 4 4 5 7 8 9 9 9 8 8 8 8 8
4 3 4 4 4 3 4 4 5 3 2 2 5 8 15 16 14 13 13 11 10 9 6 4 4 4 4 4 3 3 3 3 3 3 4 4 3 2 4 4 7 8 8 7 7 7 7 6 3
3 4 3 3 3 4 5 4 4 6 4 6 10 16 18 16 13 12 12 11 10 9 8 6 5 4 4 2 3 2 2 2 3 3 4 3 3 2 2 1 2 3 4 3 4 4 3 3 3
1 3 3 3 2 4 6 5 3 5 5 6 12 18 18 17 15 13 12 11 8 8 8 6 6 5 4 3 3 3 2 2 2 2 4 3 2 2 1 1 1 1 1 2 2 2 2 3 3
1 3 2 2 2 3 5 4 4 3 2 10 14 15 16 15 12 9 8 8 8 9 8 7 6 6 5 4 3 3 3 3 3 2 3 4 3 2 2 1 1 1 1 2 2 2 2 2 2
2 2 3 1 2 2 5 3 3 2 7 11 14 14 14 14 12 9 9 9 9 10 9 7 7 6 5 4 3 3 3 3 3 3 3 4 3 3 2 2 1 1 1 2 2 2 2 1 2
1 3 5 3 1 2 6 1 3 4 10 11 11 12 11 11 10 11 12 11 11 10 9 9 8 7 6 5 5 3 3 3 3 3 4 4 4 4 3 2 2 2 2 2 2 2 1 1 2
4 4 4 4 1 2 5 4 3 7 10 10 9 10 10 9 10 10 10 8 8 8 9 9 9 8 7 6 5 3 3 4 3 3 3 5 5 5 4 3 3 2 2 2 2 2 1 1 1
6 3 2 5 2 2 3 4 3 6 9 9 8 8 8 7 8 8 9 10 9 10 10 10 8 9 8 7 5 4 3 4 3 3 3 5 6 6 5 4 3 3 2 2 3 2 2 2 2
1 1 2 4 3 1 1 3 3 6 7 7 7 7 7 9 10 9 9 9 9 8 8 9 8 8 7 5 3 2 2 3 3 4 4 6 5 6 5 4 4 4 3 2 2 2 1 2 2
3 1 3 5 3 1 3 3 3 5 6 6 7 7 7 6 5 6 8 8 8 8 8 8 8 7 6 4 4 3 3 3 3 4 5 6 6 7 6 4 4 5 4 4 4 3 2 1 2
2 0 2 4 2 1 0 2 1 4 7 7 7 7 7 5 5 6 7 7 8 9 9 9 9 8 8 5 4 3 3 3 3 3 4 6 7 7 7 6 5 5 4 4 4 3 3 2 2
2 4 3 2 3 4 3 5 2 1 2 3 4 4 5 7 7 7 7 7 7 8 9 8 8 7 7 6 3 2 2 1 2 3 4 5 6 7 7 7 6 6 6 5 5 5 5 3 2
4 5 5 2 2 2 2 1 5 3 3 4 5 5 6 6 6 6 7 6 7 7 6 6 7 7 6 6 6 6 5 5 5 4 4 4 5 6 7 7 7 6 5 6 6 6 4 5 3
5 1 2 2 3 2 3 2 7 2 4 7 7 7 7 6 7 7 6 6 5 5 6 6 6 6 6 7 7 6 4 3 2 2 3 4 4 5 6 6 6 6 5 6 6 6 5 4 4
4 6 7 6 5 2 1 2 6 4 6 5 4 5 5 6 6 5 4 4 3 4 4 5 6 5 6 6 6 6 6 4 4 4 4 3 3 3 5 6 5 6 5 6 6 6 7 5 5
5 7 5 5 4 4 3 2 8 6 6 6 5 4 4 5 6 5 5 5 4 4 5 5 6 5 5 5 5 6 6 5 6 5 5 4 3 3 5 5 5 5 6 6 5 6 6 6 6
5 9 9 5 4 4 2 4 7 5 5 3 3 4 4 5 5 5 4 5 4 5 5 5 6 5 5 5 5 4 5 4 3 4 4 5 4 4 4 5 5 6 6 7 6 5 6 5 6
7 4 7 8 3 0 4 6 8 2 3 2 4 6 5 6 5 5 5 5 4 4 5 5 5 4 4 4 4 3 3 3 3 3 3 3 3 3 4 5 5 6 6 6 6 5 6 5 6
6 10 7 7 6 2 4 4 5 5 3 1 3 5 5 5 5 4 4 4 4 3 4 4 4 4 3 3 2 2 2 2 2 2 2 2 3 3 3 4 5 5 5 6 5 5 5 5 5
5 5 6 6 6 7 3 8 7 7 6 5 5 5 6 6 5 5 4 4 4 4 4 4 4 3 3 2 2 2 1 1 1 1 1 2 2 2 3 3 4 4 4 4 4 5 5 6 5
5 8 9 7 4 5 5 9 4 4 4 5 4 4 5 5 5 5 5 5 5 4 4 4 3 4 3 3 2 2 2 2 1 1 0 0 1 1 1 2 2 3 3 4 4 5 5 5 5
Wind_Direction
243 195 148 76 54 48 27 340 342 35 53 62 96 95 100 85 117 139 115 130 130 134 137 138 134 129 124 120 117 115 113 113 113 113 113 113 113 114 113 111 109 107 106 107 107 107 107 106 106
186 169 79 56 71 52 344 337 17 38 114 111 85 79 76 70 73 101 123 134 132 134 132 139 138 133 129 125 121 118 116 115 115 115 115 115 115 115 113 111 109 108 108 108 109 109 109 108 108
218 136 81 66 75 135 256 291 103 66 63 78 81 68 75 93 112 118 139 135 127 129 131 147 141 137 133 129 125 121 119 118 117 117 117 116 115 114 113 112 111 110 109 110 110 110 111 111 111
96 50 52 65 70 228 217 217 144 85 42 50 87 72 67 77 110 127 134 134 128 127 134 150 143 141 137 134 130 127 125 122 120 119 119 119 117 116 116 114 112 112 112 112 112 112 112 111 111
61 70 58 43 345 290 245 176 123 75 53 55 82 85 55 34 106 125 133 135 131 129 136 150 146 144 141 138 135 133 130 127 124 122 121 121 121 120 119 117 115 115 114 113 112 113 112 112 113
56 64 74 41 324 338 35 87 89 72 80 85 85 91 66 108 124 133 133 129 129 133 134 143 148 147 145 143 141 138 136 132 130 127 125 124 124 123 122 120 119 117 116 116 114 113 112 109 112
94 86 105 148 320 331 108 90 100 116 107 109 111 102 106 135 134 130 125 124 123 124 125 129 142 148 150 149 146 144 140 137 135 133 131 129 128 128 126 124 122 120 119 118 116 113 108 107 112
116 96 81 107 175 269 142 97 90 115 110 100 112 137 162 159 136 124 120 119 122 122 125 126 126 128 135 146 151 149 145 142 140 140 138 137 135 132 128 124 126 124 123 122 119 113 107 106 112
92 76 126 205 186 222 146 119 118 89 112 112 110 142 146 139 135 132 133 134 142 147 141 136 133 129 130 143 160 154 152 150 146 148 143 128 102 104 117 132 135 131 128 126 122 114 107 102 112
88 112 217 210 191 177 157 153 153 126 130 119 93 104 129 142 147 151 158 163 167 169 167 151 146 141 141 157 136 122 128 131 119 111 112 101 99 110 120 142 142 138 133 129 122 113 103 91 93
136 185 223 236 204 161 158 157 145 144 199 198 162 148 149 154 160 165 170 173 174 172 173 166 159 152 150 139 130 117 109 111 113 119 120 116 105 96 90 87 110 112 116 98 99 91 86 97 107
177 243 216 227 179 157 165 149 149 188 217 174 153 151 155 164 173 176 177 176 169 171 179 170 165 159 159 148 140 135 136 137 140 141 139 133 130 124 121 114 107 93 92 99 95 99 102 102 119
221 280 282 216 205 169 140 148 159 211 155 130 139 151 165 173 179 180 176 171 168 178 182 176 170 171 167 159 164 160 164 166 163 156 157 157 156 163 159 146 137 131 122 126 119 118 124 119 127
257 279 311 305 150 148 135 140 137 203 140 139 151 165 175 180 179 173 173 177 180 184 183 175 175 177 173 175 176 172 176 174 168 170 178 171 167 169 170 174 172 169 155 148 138 138 138 131 137
328 353 0 11 74 130 114 95 202 168 144 152 168 174 179 185 182 186 186 186 186 186 180 177 180 178 180 184 189 187 181 178 184 184 183 177 179 179 177 182 191 191 162 143 126 121 112 126 135
36 41 7 322 23 115 131 218 214 158 153 165 177 179 183 188 191 192 187 185 183 180 179 182 187 183 188 188 189 188 185 186 195 191 186 189 190 183 176 185 201 188 165 155 149 139 128 127 134
30 44 334 314 326 111 154 224 197 165 166 177 181 181 184 185 193 194 189 186 184 184 181 179 184 184 191 190 185 189 190 195 196 193 195 198 195 187 182 192 196 175 167 172 177 149 149 155 158
172 65 311 285 284 106 197 243 202 176 177 186 184 184 189 193 198 190 186 187 186 186 181 178 186 187 182 175 165 175 190 198 194 199 203 199 195 187 182 188 189 174 169 178 168 154 135 142 151
146 152 272 263 260 173 226 240 217 176 180 190 194 193 200 202 188 176 177 181 183 182 175 179 190 187 173 169 177 184 199 200 198 205 204 198 193 186 183 188 182 180 182 185 172 151 144 139 128
150 297 289 301 350 102 199 305 245 187 196 194 197 200 200 185 174 178 177 177 185 186 183 182 188 185 183 185 179 175 174 192 203 204 203 202 196 188 191 188 188 184 180 177 175 158 148 163 160
214 199 221 257 357 32 69 359 330 267 208 195 196 195 191 189 187 184 181 186 182 187 190 190 184 183 181 169 144 129 123 130 178 201 205 207 200 196 195 193 189 186 184 188 189 176 167 174 188
247 222 197 191 82 336 55 295 287 280 258 230 215 199 195 189 179 184 186 186 186 188 184 177 173 176 172 165 168 172 181 192 201 197 201 200 199 200 199 194 191 189 189 191 194 185 178 167 183
211 145 131 114 127 56 24 132 283 325 256 248 228 208 195 181 176 188 189 187 183 171 173 172 170 173 173 176 182 185 193 198 181 178 187 196 200 201 200 198 196 194 192 196 195 185 187 185 184
143 71 55 47 69 56 270 164 272 245 235 252 230 202 187 168 168 176 168 157 154 150 159 164 170 179 178 181 185 189 192 191 185 190 194 198 204 203 204 201 200 199 198 199 198 194 194 198 192
104 90 42 14 21 255 278 205 250 257 250 237 223 192 170 153 150 151 151 155 156 156 160 161 168 177 178 180 186 193 197 194 201 201 201 200 205 210 213 205 203 204 206 205 197 195 202 201 198
161 137 151 175 204 270 325 239 259 274 284 245 172 142 133 138 141 143 153 154 154 157 153 155 168 177 178 185 192 195 196 197 207 207 202 207 214 218 211 204 207 210 207 208 200 204 209 206 210
133 159 152 125 141 47 292 290 301 315 358 67 112 118 129 137 140 142 147 148 145 149 152 156 160 166 176 185 183 182 186 194 205 209 207 214 220 222 211 208 210 214 210 208 199 207 211 206 209
136 140 108 117 138 209 293 282 256 267 256 181 142 139 135 132 133 135 139 140 138 139 133 130 140 153 157 155 161 162 174 194 201 199 208 223 233 234 218 212 209 211 212 208 201 203 206 202 207
113 102 104 107 141 149 210 265 231 221 218 197 181 158 147 145 144 143 145 136 124 112 115 122 126 116 106 114 122 118 128 155 166 195 224 226 226 213 211 215 209 209 211 201 195 204 198 200 205
154 159 145 144 184 162 165 259 273 220 206 182 166 148 142 139 135 138 133 126 122 120 122 121 117 111 107 104 99 102 93 79 76 66 296 207 196 201 209 209 208 211 207 197 193 201 199 194 197